STARLINK-5647, 55355

Orbit data source: Space-Track

STARLINK-5647, 55355 is a payload satellite owned by SpaceX/Seattle (US) in LEO that was launched on Thu, 26 Jan 2023 UTC via an FALCON 9 launch vehicle from the Air Force Eastern Test Range (AFETR). Payload-class satellites include a variety of spacecraft equipped with specific instruments for various scientific and technological missions. These include communications satellites like Starlink; space stations such as the ISS; scientific satellites like the Hubble; Earth observation satellites from companies like Planet Labs, Umbra, and HawkEye 360; GPS; miniature CubeSats for education and research; and military/defense satellites.

Loading next visibility...
Identifier
55355, 2023-013AA
Orbit
LEO
Country
Flag of USUS
Related business
Manufacturer
SpaceX/Seattle
Mission
Operational Commercial Communications
Bus & Motor
STARLINK, Unknown motor
Mass
305 kg wet, ~290 kg dry
Launch date (UTC)
2023-01-26 (3 years ago)
Launch vehicle
FALCON 9
Launch site
Air Force Eastern Test Range (AFETR)
Object type
Payload
Rocket body
Debris
Shape & HBR
Box + 1 Pan, 10.1 m
Radar Cross Section
13.562 m², Large (>1 m²)

Expand to show TLE details & history
Last TLE update: 1 day ago

TLE from 1 day ago
0 STARLINK-5647
1 55355U 23013AA  25348.53558821  .00003622  00000-0  28311-3 0  9992
2 55355  43.0041  42.7101 0000951 253.7341 106.3397 15.02526119158894
Epoch: 2025-12-14T12:51Z
TLE epoch observation values (Epoch: 2025-12-14T12:51:14.821Z)
Latitude
Longitude
126.45124°
Altitude
559.074 km
Speed
7.584 km/s
True Right ascension
02h 50m 50s
True Declination
0° 00' 00"
Sunlit
Object was in full shadow at epoch
Visualization orbit readout
Latitude
Unknown
Longitude
Unknown
Altitude
Unknown
Speed
Unknown
Apparent Right ascension
Unknown
Apparent Declination
Unknown
Sunlit
N/A
Visualization observer readout
Local Sidereal Time
13:25:42
Azimuth
Unknown
Elevation
Unknown
Doppler factor
Unknown
Orbital elements
Apogee altitude
561.693 km
Perigee altitude
560.373 km
Semi-major axis
6,939.17 km
Eccentricity
0.0001
Inclination
43.0041°
RAAN
42.7101°
Arg. of periapsis
253.7341°
True anomaly
106.35016°
Mean anomaly
106.3397°
Eccentric anomaly
106.34493°
Mean motion
3.75476 °/min
Orbital period
95.88 mins
BSTAR
0.00028311
Loading maneuver chart data...
Computing Atmospheric mass density...
Loading historical data...
Loading historical data...
Loading historical data...
Loading historical data...
Loading historical data...
Loading historical data...
Loading historical data...

Documentation

Showing up to 5 results
|